星链-11228 (STARLINK-11228)

导读

STARLINK-11228是美国SpaceX星链(Starlink)卫星互联网星座的一员,于2024年8月10日发射入轨,目前运行状态良好,轨道NORAD编号为60398,国际编号为2024-141A。它运行在近地点约358.9公里、远地点约360.5公里的近地轨道,轨道倾角53.16度,轨道周期约92分钟,星链项目旨在为全球提供高速低延迟卫星互联网服务,该卫星是星链星座持续扩容的重要组成部分。

基本信息
目录编号:
60398
目录名称:
STARLINK-11228
国际标识:
2024-141A
轨道中心:
EARTH
卫星名称:
星链-11228 (STARLINK-11228)
卫星全名:
星链-11228 (STARLINK-11228)
卫星状态:
在轨 (已飞行673 天)
发射日期:
2024-08-10 UTC
国别 :
美国 (US)
星等 :
--
轨道信息
数据来源 国际轨道数据 AOE轨道数据
星历时间 2026-06-14T02:32:48+0800
17小时前
查看轨道信息
2026-06-11T12:00:00+0800
3天前
查看轨道信息
半长轴 6737.859km 6737.815km
偏心率 0.0000807 0.0001208
轨道倾角 53.158° 53.159°
近地点辐角 103.149° 51.132°
升交点赤经 332.627° 345.477°
平近点角 256.962° 333.472°
近地点 359.178km 358.864km
远地点 360.266km 360.492km
周期 91.737分钟 91.736分钟
每日圈数 15.697119 15.697273
详细信息
卫星平台:
Starlink v2.0 mini
运营商:
太空探索技术公司
运营商所在国:
美国
制造商(研发单位):
太空探索技术公司
制造商所在国:
美国
使用方式:
暂无
卫星简介
星链(Starlink)计划是由太空探索技术公司(SpaceX)提出的一个巨型低轨卫星互联网星座项目,计划在2019年至2024年间在太空搭建由约1.2万颗卫星组成的“星链”网络,其中1584颗将部署在地球上空550千米处的近地轨道,并从2020年开始工作。该卫星仍在工作。
2D轨道图
3D轨道图
轨道高度分析图
轨道倾角分析图
轨道综合分析图
查看轨道综合分析图